Regional Weather Roundup
Issued by NWS

Home | Current Version | Previous Version | Text Only | Print | Product List | Glossary Off
Versions: 1 2 3 4 5 6 7 8 9 10 11 12 13 14 15 16 17 18 19 20 21 22 23 24 25 26 27 28 29 30 31 32 33 34 35 36 37 38 39 40 41 42 43 44 45 46 47 48 49 50

563
ASUS43 KMPX 210401
RWRMN
WEATHER ROUNDUP FOR MINNESOTA
NATIONAL WEATHER SERVICE TWIN CITIES/CHANHASSEN MN
1000 PM CST MON FEB 20 2017


NOTE: "FAIR" INDICATES FEW OR NO CLOUDS BELOW 12,000 FEET WITH NO
SIGNIFICANT WEATHER AND/OR OBSTRUCTIONS TO VISIBILITY. N/A MEANS
CURRENT SKY AND/OR WEATHER CONDITIONS ARE NOT AVAILABLE.

MNZ060>063-068>070-210500-
   Twin Cities Metro

CITY           SKY/WX    TMP DP  RH WIND       PRES   REMARKS
TWIN CITIES    CLOUDY    45  41  86 NW14G24   29.77R
ST PAUL        CLOUDY    47  44  90 W22G32    29.76R
CRYSTAL        CLOUDY   N/A N/A N/A W15       29.76R
BLAINE         CLOUDY    45  45 100 W17G25    29.76R
LAKEVILLE      CLOUDY    43  43 100 W15       29.79R
EDEN PRAIRIE   CLOUDY    43  40  89 W18G25    29.78R
SOUTH ST PAUL  CLOUDY    46  45  99 W17G25    29.76R
LAKE ELMO      CLOUDY    52  50  93 W17G28    29.73R
$$
MNZ001>005-007-008-013>017-022>024-027-028-210500-
   Northwest Minnesota

CITY           SKY/WX    TMP DP  RH WIND       PRES   REMARKS
BEMIDJI        CLOUDY    33  32  96 W14       29.69R WCI  23
HALLOCK        CLEAR     30  28  93 W7        29.70R WCI  23
ROSEAU         PTCLDY    34  28  80 W13       29.66R WCI  25
WARROAD        CLOUDY    34  30  86 W13G20    29.64R WCI  25
THIEF RVR FALL MOCLDY    32  32 100 SW10      29.71R FOG     WCI  24
CROOKSTON      CLEAR     32  32 100 SW7       29.74S FOG     WCI  26
FOSSTON        FOG       32  30  93 SW10      29.73S VSB 1   WCI  24
DETROIT LAKES  MOCLDY    34  34 100 W6        29.77R FOG     WCI  29
MOORHEAD       CLEAR     32  30  93 S3        29.78S FOG
PARK RAPIDS    CLOUDY    35  31  85 W17       29.72R WCI  25
MAHNOMEN       CLOUDY    33  32  98 SW8       29.74S WCI  26
$$
MNZ006-009>011-018-025>026-210500-
   North Central Minnesota

CITY           SKY/WX    TMP DP  RH WIND       PRES   REMARKS
BAUDETTE       CLOUDY    34  31  88 W12       29.61S WCI  25
FLAG ISLAND    CLOUDY    34  32  93 W16G24    29.59R WCI  23
INTL FALLS     CLOUDY    36  34  92 W13G24    29.58R
WASKISH        CLOUDY    34  34 100 W13       29.65S WCI  25
LONGVILLE      CLOUDY    36  36 100 W8        29.69R
GRAND RAPIDS   CLOUDY    36  35  96 W16G22    29.67R
CRANE LAKE     DRIZZLE   41  39  93 SW3       29.57R
ORR            LGT RAIN  39  37  93 W16       29.57R
COOK           LGT RAIN  41  41 100 W10G16    29.58R
WALKER         CLOUDY    34  32  94 W13       29.69R WCI  25
$$
MNZ012-019>021-037-210500-
   Northeast Minnesota

CITY           SKY/WX    TMP DP  RH WIND       PRES   REMARKS
DULUTH         LGT RAIN  45  45 100 SW14      29.59S FOG
ELY            RAIN      43  43 100 SW8       29.56S
HIBBING        CLOUDY    41  41 100 W8        29.60R
EVELETH        CLOUDY    42  42  98 SW8       29.59F
DULUTH HARBOR  LGT RAIN  36  36 100 CALM      29.62S
TWO HARBORS    RAIN      43  37  81 CALM      29.57F VSB 1
SILVER BAY     RAIN      37  37 100 CALM      29.57F VSB 1/2
GRAND MARAIS     N/A     40  40 100 E5        29.59F
G MARAIS ARPRT LGT RAIN  41  37  87 S6        29.57F VSB 1/2
$$
MNZ029>031-032-039>041-046>048-054>057-064-210500-
   West Central Minnesota

CITY           SKY/WX    TMP DP  RH WIND       PRES   REMARKS
FERGUS FALLS   FOG       34  34 100 W5        29.82F VSB 1   WCI  30
WHEATON        CLEAR     34  32  93 SW6       29.83S WCI  29
MORRIS         CLEAR     34  32  93 W6        29.81R FOG     WCI  29
ALEXANDRIA     CLEAR     35  34  96 W9        29.79R WCI  28
ELBOW LAKE     FAIR      33  33 100 SW7       29.79S FOG     WCI  26
WADENA         CLOUDY    34  34 100 W8G18     29.75R WCI  27
GLENWOOD       CLEAR     36  34  93 W9        29.80R
APPLETON       CLEAR     36  34  93 SW3       29.83R FOG
BENSON         CLEAR     34  30  86 W7        29.84R FOG     WCI  28
ORTONVILLE     CLEAR     36  34  93 CALM      29.82S
WILLMAR        FAIR      37  37 100 W8        29.83S
$$
MNZ033>034-036-042>043-049>051-058-059-210500-
   Central Minnesota

CITY           SKY/WX    TMP DP  RH WIND       PRES   REMARKS
ST CLOUD       CLOUDY    39  38  96 W15G22    29.76R
SAUK CENTRE    CLOUDY    36  35  95 W10       29.79R
PAYNESVILLE    CLOUDY    38  38 100 W14       29.80R
AITKIN         CLOUDY    39  36  87 W8        29.67S
PINE RIVER     CLOUDY    36  36 100 W7        29.75R
BRAINERD       CLOUDY    37  36  96 W12       29.72R
STAPLES        CLOUDY    36  36 100 W15       29.75R
LONG PRAIRIE   CLOUDY    36  34  93 SW13G20   29.78R
LITTLE FALLS   CLOUDY    36  36 100 W8        29.76R
LITCHFIELD     CLOUDY    39  39 100 W9        29.80R
BUFFALO        CLOUDY    40  37  91 W13       29.79R
MAPLE LAKE     CLOUDY    40  39  96 W10G18    29.79R
HUTCHINSON     MOCLDY    40  38  95 W13       29.82R
$$
MNZ037-044-045-052-053-210500-
   East Central Minnesota

CITY           SKY/WX    TMP DP  RH WIND       PRES   REMARKS
PRINCETON      CLOUDY    43  39  87 W12G21    29.75R
MORA           CLOUDY    41  41 100 W13G22    29.72R
CAMBRIDGE      CLOUDY    45  45 100 W12G17    29.71R
RUSH CITY      CLOUDY    46  45  93 W14G21    29.70R
MOOSE LAKE     CLOUDY    45  45 100 W8G16     29.63R
HINCKLEY       CLOUDY    46  46 100 W18G29    29.68R
CLOQUET        DRIZZLE   46  45  93 W14G20    29.61R
MCGREGOR       CLOUDY    43  41  93 W12G17    29.67R
$$
MNZ071>073-080-081-089-090-097-098-210500-
   Southwest Minnesota

CITY           SKY/WX    TMP DP  RH WIND       PRES   REMARKS
MONTEVIDEO     CLEAR     37  37 100 W5        29.85S
GRANITE FALLS  CLEAR     37  36  96 SW5       29.86R FOG
CANBY          CLEAR     41  38  89 SW10      29.86R
MARSHALL       CLEAR     39  37  92 W10       29.86R
REDWOOD FALLS  CLEAR     39  36  89 W10       29.83R
OLIVIA         CLEAR     36  34  93 W6        29.83R
PIPESTONE      CLEAR     39  34  81 W8        29.87S
WINDOM         CLEAR     39  37  93 W8        29.86R
WORTHINGTON    CLEAR     39  37  92 W8        29.88R
JACKSON        CLEAR     41  37  87 W12       29.87S
TRACY          CLEAR     43  40  89 W7        29.85S
SLAYTON        CLEAR     41  38  91 W9        29.87S
$$
MNZ065>067-074>077-082>085-091>093-210500-
   South Central Minnesota

CITY           SKY/WX    TMP DP  RH WIND       PRES   REMARKS
MANKATO          N/A     42  39  89 W16       29.84R
NEW ULM        CLEAR     39  37  93 W8        29.84R
ST JAMES       CLEAR     39  37  93 W7        29.86S
FAIRMONT       CLEAR     44  40  85 W14       29.86R
GLENCOE        CLOUDY    40  41 100 W16       29.81R
FARIBAULT      CLOUDY    43  43 100 W14G21    29.82R
OWATONNA       CLOUDY    45  39  81 W18G26    29.82R
WASECA         CLOUDY    41  37  87 W13       29.86R
ALBERT LEA     MOCLDY    45  45 100 W12G21    29.84S
$$
MNZ078>079-086>088-094>096-210500-
   Southeast Minnesota

CITY           SKY/WX    TMP DP  RH WIND       PRES   REMARKS
ROCHESTER      CLOUDY    48  47  96 W22       29.79S
RED WING       CLOUDY    52  48  87 W17G24    29.74R
STANTON        CLOUDY    46  42  87 W16G24    29.78R
WINONA         CLOUDY    55  54  94 SW7       29.76S
AUSTIN         CLOUDY    46  43  87 W20G25    29.83S
PRESTON        CLOUDY    49  45  88 W22G29    29.81R
$$
ABBREVIATIONS USED IN REMARKS
   TC - TEMPERATURES IN CELSIUS
  WCI - WIND CHILL INDEX
   HX - HEAT INDEX
  VSB - VISIBILITY
$$




USA.gov is the U.S. government's official web portal to all federal, state and local government web resources and services.